Vorticity
3 23 -4 3 2 3 3 4 7 8 3 4 3 3 5 3 2 -0 1 3 4 3 2 3 4 3 3 5 2 3 4 4 4 2 2 6 4 6 4 7 7 6 6
-2 4 3 -2 -2 6 5 5 7 7 8 6 4 4 2 2 3 2 2 3 2 3 6 7 5 3 5 3 3 3 4 4 4 2 5 4 2 -1 11 8 6 6 4
-0 -2 2 0 7 3 6 4 2 2 8 8 8 7 6 5 7 7 7 2 2 5 2 0 4 4 3 4 6 6 6 5 3 4 4 2 1 9 9 10 9 7 5
-8 5 -3 -3 4 1 1 0 6 14 11 10 9 9 8 7 7 6 7 9 10 8 5 5 6 5 4 4 4 5 4 3 3 5 6 8 15 13 11 7 14 12 10
1 2 -3 12 4 1 -1 10 6 5 5 7 5 6 6 6 4 5 5 6 5 4 3 3 3 3 4 2 2 3 7 9 8 7 12 12 11 7 5 5 7 0 2
3 1 -2 4 9 7 4 7 11 7 7 8 8 11 11 14 12 10 9 8 7 6 5 4 4 5 6 7 8 8 10 11 14 10 12 9 9 8 6 6 7 8 12
14 22 1 7 3 8 4 6 6 4 6 6 5 2 4 6 5 8 8 7 8 9 11 11 10 8 8 9 10 10 8 2 2 2 6 8 9 10 10 9 7 7 8
27 4 25 7 11 3 1 2 3 4 2 2 -0 -1 3 8 11 13 12 10 9 9 9 10 10 10 9 9 11 12 11 11 8 17 12 11 9 8 6 7 8 8 10
11 14 22 11 11 9 8 8 4 3 5 1 7 18 13 14 14 13 13 13 13 13 13 16 17 18 18 19 18 15 15 15 10 7 7 7 6 7 8 10 11 12 10
27 13 18 14 6 9 10 8 6 8 9 16 16 14 13 12 12 11 10 10 11 10 9 8 9 8 8 7 6 6 6 4 6 8 7 7 8 11 12 10 11 10 10
18 24 23 19 16 7 6 11 14 18 18 16 14 11 10 9 8 8 8 7 7 7 7 7 7 6 6 5 4 4 6 7 10 8 11 11 14 9 10 11 11 12 9
17 12 9 10 10 9 10 21 20 16 12 9 8 8 7 7 7 7 8 8 8 9 9 9 8 8 8 9 10 10 11 11 12 13 12 11 8 11 15 14 15 12 13
10 9 8 11 14 18 16 12 8 9 9 8 8 10 10 11 11 11 12 11 10 10 10 11 12 13 14 14 14 14 14 14 11 12 8 7 11 17 16 14 11 14 17
7 8 13 17 13 10 9 9 9 8 9 9 9 8 8 9 9 10 11 12 12 13 14 15 15 14 13 12 15 15 10 12 12 8 9 15 17 16 22 23 16 13 8
3 9 11 10 7 9 9 8 8 7 6 6 7 8 8 10 12 12 13 13 13 14 13 13 15 16 15 13 11 13 13 12 11 12 17 19 19 4 1 6 7 6 6
9 7 14 11 10 9 7 6 6 7 7 10 11 12 13 12 13 15 15 13 12 11 13 14 14 13 10 12 13 12 13 12 16 18 24 2 6 6 6 7 6 7 8
19 15 11 6 6 6 6 7 6 6 7 6 12 16 15 12 13 13 13 11 12 13 12 12 10 10 13 12 11 11 16 20 16 6 5 5 6 6 7 7 7 7 8
16 4 -0 6 9 7 5 5 6 7 5 11 11 12 13 11 13 12 10 11 12 12 12 11 12 12 11 14 15 17 13 6 5 5 5 5 5 6 6 7 8 8 9
6 5 5 8 9 8 4 8 9 3 19 6 11 17 15 13 11 13 10 10 9 10 11 13 13 11 13 15 13 7 5 5 5 5 5 6 6 7 8 8 9 9 10
6 2 10 8 6 9 13 2 18 26 3 10 11 11 16 13 11 13 11 11 13 13 17 12 10 15 14 8 6 5 5 5 5 6 6 7 7 8 9 9 9 9 9
0 5 10 11 9 11 2 9 6 5 9 10 20 16 17 14 17 15 13 14 15 14 10 13 16 11 7 6 5 6 6 5 6 6 7 8 9 9 9 9 9 9 9
18 13 7 8 7 5 7 11 6 10 18 18 15 14 15 17 16 12 16 17 15 12 16 14 8 7 5 5 6 6 5 6 7 7 8 9 9 9 10 10 9 9 9
8 12 5 5 9 10 7 10 11 26 20 21 18 15 15 16 15 15 15 11 15 16 10 8 6 5 5 6 6 6 7 7 7 8 9 9 9 10 10 9 9 8 8
10 9 11 8 9 23 14 15 14 19 18 14 13 9 15 19 13 15 16 16 12 7 8 6 5 6 6 6 6 7 7 7 8 8 9 9 9 9 9 9 8 8 8
5 15 3 26 5 2 12 13 12 13 17 17 12 13 18 12 16 16 12 9 7 7 6 6 6 6 6 6 6 7 7 7 8 9 9 9 9 9 9 8 7 7 8
10 5 5 6 16 10 9 11 11 12 15 13 14 18 20 14 13 8 7 8 7 7 6 6 6 6 6 6 7 7 7 7 7 8 8 9 9 9 8 8 8 10 10
Height
3115 3117 3123 3128 3132 3135 3140 3142 3144 3148 3151 3154 3156 3159 3163 3166 3167 3169 3170 3172 3173 3174 3175 3176 3176 3176 3176 3176 3176 3175 3175 3175 3174 3171 3172 3170 3169 3170 3169 3168 3167 3165 3164
3111 3116 3119 3123 3128 3132 3136 3138 3141 3143 3145 3149 3151 3154 3158 3160 3162 3164 3165 3167 3168 3169 3170 3170 3171 3170 3170 3171 3170 3170 3169 3169 3168 3165 3163 3161 3163 3162 3162 3160 3159 3159 3158
3107 3111 3114 3121 3126 3129 3131 3133 3136 3138 3140 3142 3145 3149 3152 3154 3156 3158 3160 3162 3162 3163 3163 3163 3164 3164 3164 3164 3164 3164 3162 3162 3161 3160 3158 3154 3151 3150 3151 3152 3152 3152 3151
3101 3106 3110 3115 3119 3122 3126 3128 3130 3132 3134 3136 3139 3141 3144 3146 3149 3150 3152 3153 3154 3155 3156 3157 3157 3157 3157 3157 3157 3156 3156 3154 3153 3152 3152 3149 3146 3143 3140 3144 3144 3144 3143
3093 3099 3103 3109 3113 3116 3119 3122 3124 3126 3129 3131 3133 3135 3136 3138 3140 3142 3144 3145 3146 3147 3149 3149 3149 3150 3149 3149 3149 3148 3147 3146 3145 3144 3143 3143 3140 3139 3136 3132 3134 3135 3134
3089 3093 3096 3101 3105 3109 3113 3116 3118 3121 3123 3125 3126 3128 3130 3131 3133 3134 3135 3136 3138 3139 3140 3140 3140 3141 3140 3140 3140 3139 3138 3138 3137 3137 3136 3135 3133 3132 3130 3127 3126 3125 3124
3082 3086 3088 3093 3098 3103 3107 3110 3112 3114 3116 3118 3119 3121 3122 3124 3126 3127 3127 3128 3129 3130 3131 3131 3131 3131 3131 3131 3131 3130 3130 3130 3130 3130 3128 3128 3127 3125 3124 3121 3119 3117 3116
3073 3077 3080 3086 3090 3095 3100 3103 3106 3107 3109 3110 3112 3114 3115 3116 3117 3118 3119 3119 3120 3121 3122 3123 3123 3123 3123 3123 3123 3122 3122 3122 3123 3122 3122 3121 3120 3119 3116 3114 3112 3109 3107
3067 3070 3073 3079 3085 3088 3092 3095 3097 3099 3102 3104 3105 3105 3106 3107 3108 3108 3110 3111 3112 3113 3113 3114 3115 3115 3116 3116 3115 3114 3115 3115 3115 3115 3114 3113 3112 3111 3109 3107 3105 3102 3098
3060 3063 3067 3072 3078 3081 3086 3088 3090 3091 3093 3096 3097 3098 3099 3100 3101 3102 3102 3103 3104 3105 3106 3107 3108 3108 3109 3109 3109 3108 3108 3108 3108 3108 3107 3106 3105 3103 3101 3100 3098 3095 3092
3056 3059 3063 3067 3071 3075 3080 3081 3083 3085 3086 3087 3089 3090 3092 3093 3095 3096 3097 3097 3097 3098 3099 3100 3101 3102 3102 3102 3102 3102 3101 3101 3100 3099 3099 3098 3097 3095 3094 3093 3090 3088 3085
3054 3056 3059 3063 3066 3070 3073 3074 3076 3079 3080 3081 3082 3084 3085 3086 3088 3089 3089 3090 3091 3092 3092 3092 3093 3094 3094 3095 3094 3093 3093 3092 3092 3091 3091 3090 3089 3088 3087 3085 3083 3081 3079
3052 3054 3057 3058 3060 3063 3065 3068 3071 3073 3075 3075 3076 3078 3078 3079 3080 3080 3081 3081 3082 3083 3083 3084 3084 3084 3085 3085 3085 3085 3085 3085 3085 3084 3084 3083 3083 3082 3081 3079 3077 3075 3074
3049 3052 3054 3055 3057 3060 3061 3065 3065 3068 3069 3070 3071 3071 3071 3072 3073 3073 3073 3073 3074 3075 3075 3075 3075 3076 3077 3077 3078 3079 3078 3078 3079 3079 3079 3078 3078 3077 3077 3075 3073 3071 3070
3047 3049 3051 3053 3055 3057 3058 3060 3060 3063 3064 3064 3064 3064 3065 3065 3065 3065 3065 3065 3066 3067 3067 3068 3069 3069 3070 3071 3072 3073 3073 3073 3073 3074 3074 3074 3075 3075 3072 3071 3070 3069 3067
3044 3046 3048 3050 3052 3053 3055 3056 3058 3058 3059 3058 3057 3057 3058 3057 3058 3058 3058 3059 3059 3061 3061 3061 3063 3064 3066 3066 3067 3068 3068 3068 3069 3070 3070 3072 3072 3070 3069 3067 3066 3065 3062
3042 3044 3045 3047 3049 3050 3051 3052 3053 3053 3053 3052 3050 3049 3050 3051 3051 3051 3052 3053 3054 3055 3056 3056 3058 3060 3061 3061 3062 3064 3064 3065 3066 3068 3068 3069 3067 3066 3065 3064 3063 3061 3059
3039 3042 3043 3044 3045 3046 3047 3047 3048 3047 3046 3044 3043 3043 3044 3044 3044 3045 3046 3047 3048 3050 3051 3052 3054 3055 3055 3057 3058 3060 3062 3063 3064 3065 3066 3064 3063 3062 3061 3060 3058 3056 3054
3037 3038 3039 3040 3041 3041 3042 3041 3041 3040 3039 3037 3037 3036 3036 3037 3038 3039 3040 3042 3043 3044 3046 3047 3049 3051 3053 3054 3056 3058 3060 3061 3062 3062 3062 3060 3059 3058 3058 3056 3054 3052 3049
3033 3035 3035 3036 3036 3036 3036 3036 3035 3033 3032 3030 3029 3028 3029 3030 3031 3033 3034 3036 3038 3039 3041 3043 3045 3047 3049 3051 3053 3056 3057 3059 3059 3059 3058 3057 3056 3055 3053 3052 3049 3047 3045
3030 3030 3030 3031 3031 3031 3030 3030 3028 3027 3024 3023 3022 3022 3022 3024 3025 3027 3029 3031 3033 3035 3037 3040 3042 3045 3047 3049 3051 3053 3054 3055 3055 3055 3054 3053 3052 3051 3049 3047 3045 3043 3040
3025 3026 3026 3025 3025 3024 3024 3023 3022 3019 3017 3015 3015 3016 3016 3018 3019 3021 3024 3026 3029 3031 3034 3037 3040 3042 3044 3046 3048 3050 3051 3052 3051 3050 3050 3049 3047 3046 3044 3043 3041 3038 3035
3021 3021 3021 3021 3020 3019 3018 3016 3014 3011 3010 3010 3010 3010 3011 3013 3015 3017 3020 3023 3026 3029 3032 3035 3038 3040 3042 3044 3045 3046 3048 3047 3046 3047 3046 3044 3043 3041 3040 3038 3035 3033 3030
3017 3017 3017 3016 3015 3014 3013 3011 3009 3007 3006 3005 3006 3007 3008 3009 3012 3014 3017 3020 3024 3027 3030 3033 3035 3038 3039 3040 3042 3043 3043 3043 3043 3042 3041 3040 3038 3036 3035 3032 3030 3027 3024
3013 3013 3012 3011 3010 3009 3008 3007 3005 3004 3003 3002 3003 3003 3004 3006 3009 3012 3015 3018 3022 3025 3028 3030 3032 3034 3036 3037 3038 3038 3039 3039 3038 3038 3036 3034 3033 3031 3030 3027 3024 3021 3018
3008 3008 3007 3007 3006 3004 3003 3003 3002 3000 2999 2999 2999 2999 3001 3004 3007 3011 3014 3017 3020 3022 3024 3026 3028 3030 3032 3033 3034 3034 3034 3034 3033 3032 3031 3030 3028 3026 3024 3021 3019 3016 3013